Retour au catalogue

CZ-4C DEB

ActifLEO
NORAD 43627·DEBRIS·🇨🇳 China

Lancé Nov 20, 2013 depuis Taiyuan Satellite Launch Center

Loading…

Prochains Passages (prochaines 24 heures)

TLE

FraisSource: Space-Track

Époque: Sep 14, 2026, 23:26 UTC

1 43627U 13065D   26257.97685847  .00009711  00000-0  32569-2 0  9998
2 43627 100.5831 156.1212 0109778 151.5249 209.1986 14.34151796410684

Suivez CZ-4C DEB en temps réel avec AllMySat

Download on the App Store